Terminal Aerodrome Forecast
Issued by NWS Denver/Boulder, CO

Home | Current Version | Previous Version | Text Only | Print | Product List | Glossary On
Versions: 1 2 3 4 5 6 7 8 9 10 11 12 13 14 15 16 17 18 19 20 21 22 23 24 25 26 27 28 29 30 31 32 33 34 35 36 37 38 39 40 41 42 43 44 45 46 47 48 49 50
150
FTUS45 KBOU 212053 AAB
TAFDEN
TAF AMD
KDEN 212053Z 2121/2224 13007KT P6SM SCT035 BKN060
     FM212230 17007KT P6SM FEW035 SCT060
     FM220200 20008KT P6SM SCT150
     FM221400 24010KT P6SM SCT100 BKN200
     FM221900 30012G20KT P6SM SCT100 BKN200=

USA.gov is the U.S. government's official web portal to all federal, state and local government web resources and services.